• Em Portugal
  • Lista de países
  • Para 7 dias
  • Temperatura da água
  • Mapas de satélite
  • Mapa do tempo
  • Widgets de tempo
  • user-avatar
    Iniciar Sessão

    Previsão horária em Goiania

    Hoje, 22 Janeiro, Segunda-feira

    Tempo Temperatura Precipitação Vento Pressão Humidade
    00:00 +24°C° 0,1 mm 1 m/s 697 mmHg 76%
    01:00 +24°C° 0,6 mm 1 m/s 697 mmHg 80%
    02:00 +23°C° 0,6 mm 1 m/s 697 mmHg 83%
    03:00 +23°C° 0,6 mm 1 m/s 697 mmHg 86%
    04:00 +23°C° 0,1 mm 1 m/s 697 mmHg 86%
    05:00 +23°C° 0,1 mm 1 m/s 697 mmHg 86%
    06:00 +23°C° 0,1 mm 1 m/s 697 mmHg 86%
    07:00 +24°C° 0 mm 1 m/s 697 mmHg 83%
    08:00 +25°C° 0 mm 1 m/s 698 mmHg 80%
    09:00 +26°C° 0 mm 2 m/s 698 mmHg 78%
    10:00 +28°C° 0 mm 2 m/s 698 mmHg 69%
    11:00 +30°C° 0 mm 2 m/s 698 mmHg 60%
    12:00 +32°C° 0 mm 2 m/s 699 mmHg 51%
    13:00 +32°C° 0 mm 2 m/s 698 mmHg 50%
    14:00 +32°C° 0 mm 2 m/s 697 mmHg 49%
    15:00 +32°C° 0 mm 2 m/s 697 mmHg 49%
    16:00 +31°C° 0 mm 1 m/s 696 mmHg 55%
    17:00 +30°C° 0 mm 1 m/s 696 mmHg 61%
    18:00 +29°C° 0 mm 1 m/s 696 mmHg 67%
    19:00 +28°C° 0,1 mm 1 m/s 696 mmHg 71%
    20:00 +26°C° 0,1 mm 1 m/s 696 mmHg 74%
    21:00 +23°C° 0,1 mm 0 m/s 696 mmHg 78%
    22:00 +22°C° 0,1 mm 0 m/s 697 mmHg 79%
    23:00 +22°C° 0,1 mm 0 m/s 697 mmHg 80%

    Amanhã, 23 Janeiro, Terça-feira

    Tempo Temperatura Precipitação Vento Pressão Humidade
    00:00 +22°C° 0,1 mm 0 m/s 697 mmHg 81%
    01:00 +23°C° 0,1 mm 1 m/s 697 mmHg 81%
    02:00 +23°C° 0,1 mm 1 m/s 696 mmHg 81%
    03:00 +23°C° 0,1 mm 1 m/s 696 mmHg 81%
    04:00 +23°C° 0 mm 1 m/s 696 mmHg 82%
    05:00 +22°C° 0 mm 1 m/s 696 mmHg 84%
    06:00 +21°C° 0 mm 2 m/s 696 mmHg 85%
    07:00 +24°C° 0 mm 2 m/s 697 mmHg 79%
    08:00 +26°C° 0 mm 2 m/s 698 mmHg 73%
    09:00 +28°C° 0 mm 3 m/s 699 mmHg 67%
    10:00 +29°C° 0 mm 3 m/s 699 mmHg 62%
    11:00 +30°C° 0 mm 3 m/s 699 mmHg 56%
    12:00 +33°C° 0 mm 3 m/s 699 mmHg 51%
    13:00 +33°C° 0 mm 3 m/s 698 mmHg 49%
    14:00 +34°C° 0 mm 2 m/s 697 mmHg 48%
    15:00 +34°C° 0 mm 2 m/s 697 mmHg 46%
    16:00 +32°C° 0 mm 2 m/s 696 mmHg 53%
    17:00 +31°C° 0 mm 1 m/s 696 mmHg 59%
    18:00 +30°C° 0 mm 1 m/s 696 mmHg 65%
    19:00 +28°C° 0 mm 1 m/s 696 mmHg 68%
    20:00 +26°C° 0 mm 1 m/s 696 mmHg 71%
    21:00 +25°C° 0 mm 1 m/s 697 mmHg 75%
    22:00 +24°C° 0 mm 1 m/s 697 mmHg 75%
    23:00 +22°C° 0 mm 0 m/s 697 mmHg 76%

    Depois de amanhã, 24 Janeiro, Quarta-feira

    Tempo Temperatura Precipitação Vento Pressão Humidade
    00:00 +22°C° 0 mm 0 m/s 697 mmHg 77%
    01:00 +22°C° 0 mm 0 m/s 697 mmHg 78%
    02:00 +21°C° 0 mm 0 m/s 697 mmHg 79%
    03:00 +21°C° 0 mm 0 m/s 696 mmHg 79%
    04:00 +23°C° 0 mm 1 m/s 696 mmHg 81%
    05:00 +23°C° 0 mm 1 m/s 696 mmHg 82%
    06:00 +22°C° 0 mm 1 m/s 697 mmHg 83%
    07:00 +24°C° 0 mm 1 m/s 697 mmHg 78%
    08:00 +26°C° 0 mm 2 m/s 698 mmHg 73%
    09:00 +28°C° 0 mm 2 m/s 699 mmHg 68%
    10:00 +30°C° 0 mm 2 m/s 699 mmHg 62%
    11:00 +31°C° 0 mm 2 m/s 699 mmHg 56%
    12:00 +32°C° 0 mm 2 m/s 698 mmHg 50%
    13:00 +32°C° 0 mm 2 m/s 698 mmHg 53%
    14:00 +32°C° 0 mm 1 m/s 697 mmHg 55%
    15:00 +30°C° 0 mm 0 m/s 696 mmHg 57%
    16:00 +30°C° 0,3 mm 1 m/s 696 mmHg 63%
    17:00 +29°C° 0,3 mm 1 m/s 696 mmHg 68%
    18:00 +28°C° 0,3 mm 1 m/s 696 mmHg 73%
    19:00 +27°C° 0,6 mm 1 m/s 696 mmHg 78%
    20:00 +25°C° 0,6 mm 1 m/s 696 mmHg 82%
    21:00 +24°C° 0,6 mm 1 m/s 697 mmHg 86%
    22:00 +24°C° 0,2 mm 1 m/s 697 mmHg 87%
    23:00 +23°C° 0,2 mm 1 m/s 697 mmHg 87%

    25 Janeiro, Quinta-feira

    Tempo Temperatura Precipitação Vento Pressão Humidade
    00:00 +23°C° 0,2 mm 1 m/s 697 mmHg 87%
    01:00 +23°C° 0,1 mm 1 m/s 697 mmHg 88%
    02:00 +23°C° 0,1 mm 1 m/s 696 mmHg 89%
    03:00 +23°C° 0,1 mm 1 m/s 696 mmHg 90%
    04:00 +23°C° 0 mm 1 m/s 696 mmHg 90%
    05:00 +23°C° 0 mm 1 m/s 696 mmHg 90%
    06:00 +22°C° 0 mm 1 m/s 696 mmHg 90%
    07:00 +24°C° 0,2 mm 1 m/s 697 mmHg 85%
    08:00 +26°C° 0,2 mm 2 m/s 697 mmHg 79%
    09:00 +28°C° 0,2 mm 2 m/s 698 mmHg 74%
    10:00 +29°C° 0,6 mm 2 m/s 698 mmHg 70%
    11:00 +30°C° 0,6 mm 2 m/s 697 mmHg 65%
    12:00 +31°C° 0,6 mm 2 m/s 697 mmHg 61%
    13:00 +31°C° 1,1 mm 2 m/s 696 mmHg 65%
    14:00 +30°C° 1,1 mm 2 m/s 696 mmHg 68%
    15:00 +30°C° 1,1 mm 2 m/s 695 mmHg 72%
    16:00 +29°C° 1,5 mm 2 m/s 695 mmHg 76%
    17:00 +28°C° 1,5 mm 2 m/s 695 mmHg 79%
    18:00 +28°C° 1,5 mm 1 m/s 695 mmHg 83%
    19:00 +27°C° 1,1 mm 1 m/s 695 mmHg 85%
    20:00 +25°C° 1,1 mm 1 m/s 695 mmHg 87%
    21:00 +24°C° 1,1 mm 1 m/s 695 mmHg 88%
    22:00 +24°C° 2,1 mm 1 m/s 695 mmHg 89%
    23:00 +22°C° 2,1 mm 0 m/s 695 mmHg 89%

    26 Janeiro, Sexta-feira

    Tempo Temperatura Precipitação Vento Pressão Humidade
    00:00 +22°C° 2,1 mm 0 m/s 695 mmHg 90%
    01:00 +21°C° 0,3 mm 0 m/s 695 mmHg 90%
    02:00 +21°C° 0,3 mm 0 m/s 695 mmHg 91%
    03:00 +21°C° 0,3 mm 0 m/s 694 mmHg 91%
    04:00 +21°C° 0,2 mm 0 m/s 695 mmHg 92%
    05:00 +21°C° 0,2 mm 0 m/s 695 mmHg 92%
    06:00 +22°C° 0,2 mm 1 m/s 695 mmHg 93%
    07:00 +23°C° 0,3 mm 1 m/s 695 mmHg 91%
    08:00 +25°C° 0,3 mm 1 m/s 696 mmHg 89%
    09:00 +26°C° 0,3 mm 1 m/s 697 mmHg 87%
    10:00 +26°C° 1 mm 1 m/s 696 mmHg 85%
    11:00 +27°C° 1 mm 1 m/s 696 mmHg 82%
    12:00 +28°C° 1 mm 2 m/s 696 mmHg 80%
    13:00 +28°C° 1,1 mm 2 m/s 695 mmHg 81%
    14:00 +28°C° 1,1 mm 2 m/s 695 mmHg 82%
    15:00 +27°C° 1,1 mm 3 m/s 694 mmHg 83%
    16:00 +27°C° 0,9 mm 2 m/s 694 mmHg 86%
    17:00 +26°C° 0,9 mm 2 m/s 694 mmHg 88%
    18:00 +25°C° 0,9 mm 2 m/s 694 mmHg 91%
    19:00 +25°C° 0,5 mm 2 m/s 694 mmHg 92%
    20:00 +24°C° 0,5 mm 1 m/s 694 mmHg 94%
    21:00 +23°C° 0,5 mm 1 m/s 695 mmHg 95%
    22:00 +23°C° 0,2 mm 1 m/s 695 mmHg 95%
    23:00 +23°C° 0,2 mm 1 m/s 695 mmHg 95%

    27 Janeiro, Sábado

    Tempo Temperatura Precipitação Vento Pressão Humidade
    00:00 +23°C° 0,2 mm 1 m/s 695 mmHg 95%
    01:00 +22°C° 0,3 mm 1 m/s 694 mmHg 95%
    02:00 +22°C° 0,3 mm 1 m/s 694 mmHg 95%
    03:00 +22°C° 0,3 mm 1 m/s 694 mmHg 96%
    04:00 +21°C° 0,1 mm 2 m/s 694 mmHg 96%
    05:00 +21°C° 0,1 mm 2 m/s 694 mmHg 96%
    06:00 +21°C° 0,1 mm 2 m/s 694 mmHg 96%
    07:00 +23°C° 0 mm 2 m/s 695 mmHg 94%
    08:00 +24°C° 0 mm 2 m/s 695 mmHg 91%
    09:00 +25°C° 0 mm 2 m/s 696 mmHg 89%
    10:00 +26°C° 0,5 mm 3 m/s 696 mmHg 85%
    11:00 +27°C° 0,5 mm 3 m/s 695 mmHg 81%
    12:00 +28°C° 0,5 mm 3 m/s 695 mmHg 77%
    13:00 +28°C° 0,7 mm 3 m/s 695 mmHg 77%
    14:00 +28°C° 0,7 mm 3 m/s 694 mmHg 78%
    15:00 +29°C° 0,7 mm 3 m/s 694 mmHg 78%
    16:00 +28°C° 0,7 mm 3 m/s 693 mmHg 82%
    17:00 +27°C° 0,7 mm 3 m/s 693 mmHg 85%
    18:00 +27°C° 0,7 mm 2 m/s 693 mmHg 88%
    19:00 +26°C° 1 mm 2 m/s 693 mmHg 90%
    20:00 +24°C° 1 mm 2 m/s 694 mmHg 93%
    21:00 +23°C° 1 mm 2 m/s 694 mmHg 95%
    22:00 +23°C° 0,9 mm 2 m/s 694 mmHg 95%
    23:00 +23°C° 0,9 mm 2 m/s 694 mmHg 94%
    Mostrar mais